CW1575 Weather Reports


Display with metric or nautical units.
time (UTC)temp
F
wind
direction
speed
MPH
gust
MPH
rain 1hr
in
rain 24hr
in
rain mn
in
humidity
%
barometer
mb
20141022234526 64 17 1.0 3.0 0.00 0.02 0.00 39 1019.3
20141022233527 65 17 2.0 6.0 0.00 0.02 0.00 39 1019.1
20141022232527 65 7 3.0 5.0 0.00 0.02 0.00 39 1019.0
20141022231527 65 356 2.0 7.0 0.00 0.02 0.00 39 1019.3
20141022230526 66 321 3.0 10.0 0.00 0.02 0.00 37 1019.2
20141022225527 67 329 6.0 10.0 0.00 0.02 0.00 36 1019.1
20141022224526 68 291 2.0 8.0 0.00 0.02 0.00 35 1019.0
20141022223526 68 345 1.0 5.0 0.00 0.02 0.00 33 1018.8
20141022222526 69 23 3.0 5.0 0.00 0.02 0.00 33 1018.8
20141022221526 69 30 2.0 5.0 0.00 0.02 0.00 33 1018.8
20141022220526 69 342 1.0 5.0 0.00 0.02 0.00 33 1018.8
20141022215527 70 308 2.0 9.0 0.00 0.02 0.00 32 1018.6
20141022214527 70 6 3.0 9.0 0.00 0.02 0.00 31 1018.5
20141022213526 71 20 3.0 7.0 0.00 0.02 0.00 31 1018.3
20141022212526 71 31 1.0 3.0 0.00 0.02 0.00 30 1018.3
20141022211529 70 18 2.0 3.0 0.00 0.02 0.00 32 1018.2
20141022210530 69 91 2.0 5.0 0.00 0.02 0.00 33 1018.1
20141022205527 69 21 2.0 3.0 0.00 0.02 0.00 34 1018.4
20141022204527 69 8 2.0 3.0 0.00 0.02 0.00 32 1018.4
20141022203527 69 9 1.0 3.0 0.00 0.02 0.00 34 1018.5
20141022202527 69 86 1.0 3.0 0.00 0.02 0.00 33 1018.6
20141022201527 70 72 2.0 7.0 0.00 0.02 0.00 33 1018.5
20141022200526 71 95 2.0 12.0 0.00 0.02 0.00 32 1018.5
20141022195527 72 21 2.0 6.0 0.00 0.02 0.00 29 1018.4
20141022194527 73 37 2.0 6.0 0.00 0.02 0.00 31 1018.6
20141022193527 73 37 2.0 9.0 0.00 0.02 0.00 33 1018.9
20141022192526 71 23 2.0 6.0 0.00 0.02 0.00 34 1019.0
20141022191527 70 106 1.0 5.0 0.00 0.02 0.00 34 1019.0
20141022190526 69 59 2.0 5.0 0.00 0.02 0.00 36 1019.3
20141022185527 67 66 2.0 3.0 0.00 0.02 0.00 35 1019.3
20141022184526 66 91 2.0 6.0 0.00 0.02 0.00 35 1019.5
20141022183527 64 236 2.0 3.0 0.00 0.02 0.00 38 1019.6
20141022182526 64 21 1.0 3.0 0.00 0.02 0.00 38 1019.8
20141022181526 64 19 2.0 6.0 0.00 0.02 0.00 39 1019.9
20141022180527 64 28 2.0 3.0 0.00 0.02 0.00 41 1020.0
20141022175527 63 151 2.0 6.0 0.00 0.02 0.00 44 1020.0
20141022174527 62 198 2.0 5.0 0.00 0.02 0.00 45 1020.0
20141022173526 62 4 3.0 5.0 0.00 0.02 0.00 45 1020.3
20141022172527 61 121 2.0 3.0 0.00 0.02 0.00 47 1020.4
20141022171526 61 273 1.0 3.0 0.00 0.02 0.00 47 1020.3
20141022170526 61 197 3.0 6.0 0.00 0.02 0.00 48 1020.3
20141022165527 61 190 0.0 6.0 0.00 0.02 0.00 49 1020.2
20141022164527 61 153 2.0 6.0 0.00 0.02 0.00 50 1020.2
20141022163526 61 141 3.0 7.0 0.00 0.02 0.00 50 1020.2
20141022162526 60 158 1.0 7.0 0.00 0.02 0.00 52 1020.3
20141022161527 60 163 2.0 7.0 0.00 0.02 0.00 55 1020.1
20141022160526 59 134 2.0 6.0 0.00 0.02 0.00 55 1020.1
20141022155527 59 193 3.0 7.0 0.00 0.02 0.00 56 1020.2
20141022154526 58 184 3.0 6.0 0.00 0.02 0.00 58 1020.1
20141022153527 56 158 3.0 6.0 0.00 0.02 0.00 62 1020.1
20141022152526 55 202 3.0 7.0 0.00 0.02 0.00 64 1020.1
20141022151530 53 177 2.0 6.0 0.00 0.02 0.00 70 1020.4
20141022150526 52 157 2.0 6.0 0.00 0.02 0.00 73 1020.4
20141022145526 50 206 2.0 3.0 0.00 0.02 0.00 77 1020.4
20141022144528 49 178 1.0 2.0 0.00 0.02 0.00 79 1020.1
20141022143526 47 138 1.0 2.0 0.00 0.02 0.00 80 1020.1
20141022142526 46 112 1.0 3.0 0.00 0.02 0.00 82 1020.0
20141022141528 46 167 0.0 3.0 0.00 0.02 0.00 82 1019.7
20141022140526 46 165 1.0 3.0 0.00 0.02 0.00 81 1019.5
20141022135526 46 185 1.0 3.0 0.00 0.02 0.00 81 1019.4
20141022134526 46 203 0.0 2.0 0.00 0.02 0.00 82 1019.2
20141022133526 46 207 0.0 2.0 0.00 0.02 0.00 82 1018.9
20141022132526 46 207 0.0 2.0 0.00 0.02 0.00 83 1019.0
20141022131526 46 207 1.0 3.0 0.00 0.02 0.00 83 1018.9
20141022130526 46 209 2.0 3.0 0.00 0.02 0.00 83 1018.9
20141022125526 46 205 2.0 3.0 0.00 0.02 0.00 83 1018.9
20141022124527 46 306 1.0 2.0 0.00 0.02 0.00 84 1018.9
20141022123527 46 234 2.0 5.0 0.00 0.02 0.00 85 1018.5
20141022122526 46 234 1.0 2.0 0.00 0.02 0.00 85 1018.5
20141022121525 46 234 0.0 1.0 0.00 0.02 0.00 85 1018.5
20141022120527 46 234 1.0 3.0 0.00 0.02 0.00 85 1018.4
20141022115526 46 229 1.0 3.0 0.00 0.02 0.00 86 1018.3
20141022114526 46 175 1.0 3.0 0.00 0.02 0.00 85 1018.4
20141022113527 46 159 1.0 3.0 0.00 0.02 0.00 84 1018.4
20141022112526 46 131 1.0 3.0 0.00 0.02 0.00 83 1018.2
20141022111526 46 336 2.0 3.0 0.00 0.02 0.00 83 1018.2
20141022110526 46 11 2.0 8.0 0.00 0.02 0.00 82 1018.3
20141022105527 47 261 0.0 2.0 0.00 0.02 0.00 81 1018.3
20141022104526 47 261 0.0 3.0 0.00 0.02 0.00 80 1018.2
20141022103526 48 269 1.0 3.0 0.00 0.02 0.00 80 1018.0
20141022102526 48 292 1.0 2.0 0.00 0.02 0.00 79 1017.8
20141022101526 48 292 1.0 2.0 0.00 0.02 0.00 79 1017.7
20141022100526 48 292 0.0 3.0 0.00 0.02 0.00 79 1017.6
20141022095527 49 300 1.0 5.0 0.00 0.02 0.00 79 1017.5
20141022094526 49 304 3.0 7.0 0.00 0.02 0.00 79 1017.2
20141022093525 49 309 1.0 3.0 0.00 0.02 0.00 78 1017.1
20141022092526 50 306 1.0 3.0 0.00 0.02 0.00 78 1017.1
20141022091537 50 290 1.0 3.0 0.00 0.02 0.00 78 1017.0
20141022090527 50 279 0.0 3.0 0.00 0.02 0.00 78 1017.0
20141022085526 51 309 2.0 3.0 0.00 0.02 0.00 78 1016.7
20141022084526 51 302 2.0 5.0 0.00 0.02 0.00 78 1016.6
20141022083526 51 302 2.0 5.0 0.00 0.02 0.00 78 1016.6
20141022082525 51 324 2.0 5.0 0.00 0.02 0.00 79 1016.6
20141022081526 52 328 1.0 3.0 0.00 0.02 0.00 79 1016.6
20141022080525 52 355 1.0 2.0 0.00 0.02 0.00 79 1016.3
20141022075526 52 355 1.0 2.0 0.00 0.02 0.00 79 1016.2
20141022074525 53 0 1.0 2.0 0.00 0.02 0.00 79 1016.2
20141022073526 53 9 1.0 2.0 0.00 0.02 0.00 79 1016.1
20141022072527 53 33 0.0 2.0 0.00 0.02 0.00 78 1016.1
20141022071525 54 33 1.0 2.0 0.00 0.02 0.00 78 1015.9
20141022070526 54 33 0.0 2.0 0.00 0.02 0.00 77 1015.8
20141022065526 54 37 2.0 3.0 0.01 0.02 0.00 75 1015.8
20141022064526 55 109 1.0 2.0 0.00 0.02 0.00 75 1015.7
20141022063526 55 109 1.0 2.0 0.00 0.02 0.00 74 1015.9
20141022062526 55 109 2.0 7.0 0.00 0.02 0.00 72 1016.0
20141022061513 55 129 2.0 3.0 0.00 0.02 0.00 71 1015.8
20141022060527 56 293 1.0 7.0 0.00 0.02 0.00 70 1015.7
20141022055527 56 101 2.0 7.0 0.01 0.01 0.01 68 1016.1
20141022054526 55 191 1.0 3.0 0.00 0.00 0.00 58 1015.8
20141022053526 56 125 0.0 2.0 0.00 0.00 0.00 57 1015.5
20141022052526 56 124 1.0 2.0 0.00 0.00 0.00 56 1015.5
20141022051526 56 124 0.0 1.0 0.00 0.00 0.00 54 1015.4
20141022050526 56 124 0.0 1.0 0.00 0.00 0.00 54 1015.2
20141022045525 57 124 1.0 2.0 0.00 0.00 0.00 54 1015.1
20141022044526 57 124 0.0 2.0 0.00 0.00 0.00 53 1015.2
20141022043526 57 124 1.0 2.0 0.00 0.00 0.00 53 1015.2
20141022042526 58 124 2.0 2.0 0.00 0.00 0.00 52 1015.3
20141022041527 58 263 1.0 2.0 0.00 0.00 0.00 51 1015.1
20141022040525 58 263 0.0 3.0 0.00 0.00 0.00 51 1015.2
20141022035526 58 300 1.0 10.0 0.00 0.00 0.00 50 1014.8
20141022034526 58 315 5.0 10.0 0.00 0.00 0.00 50 1014.8
20141022033526 59 268 3.0 9.0 0.00 0.00 0.00 50 1015.2
20141022032526 60 281 3.0 8.0 0.00 0.00 0.00 48 1015.4
20141022031526 60 317 2.0 8.0 0.00 0.00 0.00 48 1015.3
20141022030526 61 294 5.0 12.0 0.00 0.00 0.00 47 1015.3
20141022025526 61 284 5.0 12.0 0.00 0.00 0.00 47 1015.0
20141022024526 61 257 3.0 10.0 0.00 0.00 0.00 48 1014.9
20141022023526 61 290 1.0 3.0 0.00 0.00 0.00 49 1014.6
20141022022525 61 294 1.0 2.0 0.00 0.00 0.00 49 1014.5
20141022021525 61 294 2.0 5.0 0.00 0.00 0.00 49 1014.4
20141022020528 61 321 2.0 3.0 0.00 0.00 0.00 50 1014.3
20141022015526 61 343 1.0 3.0 0.00 0.00 0.00 50 1014.1
20141022014526 62 277 1.0 3.0 0.00 0.00 0.00 52 1014.0
20141022013525 62 271 0.0 2.0 0.00 0.00 0.00 51 1013.8
20141022012525 63 277 1.0 2.0 0.00 0.00 0.00 48 1013.8
20141022011527 63 24 1.0 1.0 0.00 0.00 0.00 47 1013.6
20141022010527 64 24 0.0 1.0 0.00 0.00 0.00 45 1013.6
20141022005526 65 24 1.0 2.0 0.00 0.00 0.00 43 1013.4
20141022004525 66 24 0.0 1.0 0.00 0.00 0.00 41 1013.4
20141022003525 67 24 0.0 1.0 0.00 0.00 0.00 39 1013.3
20141022002525 69 24 0.0 5.0 0.00 0.00 0.00 37 1013.3
20141022001528 70 25 1.0 3.0 0.00 0.00 0.00 37 1013.2
20141022000526 70 0 1.0 3.0 0.00 0.00 0.00 36 1013.2
20141021235525 71 301 1.0 3.0 0.00 0.00 0.00 34 1013.2